SQ9NFI-4 Weather Reports


Display with metric or nautical units.
time (UTC)temp
F
wind
direction
speed
MPH
gust
MPH
rain 1hr
in
rain 24hr
in
rain mn
in
humidity
%
barometer
mb
20260901201902 53 328 0.0 0.0 0.00 0.00 0.00 99 1020.7
20260901201402 53 329 0.0 0.0 0.00 0.00 0.00 99 1020.7
20260901200901 53 329 0.0 0.0 0.00 0.00 0.00 99 1020.7
20260901200401 53 329 0.0 0.0 0.00 0.00 0.00 99 1020.7
20260901195902 53 329 0.0 0.0 0.00 0.00 0.00 99 1020.7
20260901195402 53 328 0.0 0.0 0.00 0.00 0.00 99 1020.7
20260901194902 53 336 0.0 0.0 0.00 0.00 0.00 99 1020.7
20260901194401 53 336 0.0 0.0 0.00 0.00 0.00 99 1020.7
20260901193902 53 336 0.0 0.0 0.00 0.00 0.00 99 1020.7
20260901193402 54 335 0.0 0.0 0.00 0.00 0.00 99 1020.7
20260901192902 54 336 0.0 0.0 0.00 0.00 0.00 99 1020.7
20260901192402 54 336 0.0 0.0 0.00 0.00 0.00 99 1020.7
20260901191902 54 335 0.0 0.0 0.00 0.00 0.00 99 1020.7
20260901191402 55 336 0.0 0.0 0.00 0.00 0.00 99 1020.7
20260901190902 55 336 0.0 0.0 0.00 0.00 0.00 99 1020.7
20260901190402 55 336 0.0 0.0 0.00 0.00 0.00 99 1020.7
20260901185902 56 336 0.0 0.0 0.00 0.00 0.00 99 1020.7
20260901185402 56 336 0.0 0.0 0.00 0.00 0.00 99 1020.7
20260901184902 56 336 0.0 0.0 0.00 0.00 0.00 99 1020.7
20260901184402 56 336 0.0 0.0 0.00 0.00 0.00 99 1020.7
20260901183902 56 330 0.0 0.0 0.00 0.00 0.00 99 1020.7
20260901183401 56 329 0.0 0.0 0.00 0.00 0.00 98 1020.7
20260901182901 57 329 0.0 0.0 0.00 0.00 0.00 98 1020.7
20260901182401 57 328 0.0 0.0 0.00 0.00 0.00 98 1020.3
20260901181901 57 328 0.0 0.0 0.00 0.00 0.00 97 1020.3
20260901181402 58 328 0.0 0.0 0.00 0.00 0.00 96 1020.3
20260901180901 58 328 0.0 0.0 0.00 0.00 0.00 95 1020.3
20260901180401 58 328 0.0 0.0 0.00 0.00 0.00 94 1020.3
20260901175901 59 328 0.0 0.0 0.00 0.00 0.00 94 1020.0
20260901175401 59 324 0.0 0.0 0.00 0.00 0.00 92 1020.0
20260901174901 60 320 0.0 0.0 0.00 0.00 0.00 90 1020.0
20260901174401 60 320 0.0 0.0 0.00 0.00 0.00 88 1020.0
20260901173901 61 320 0.0 0.0 0.00 0.00 0.00 86 1020.0
20260901173401 62 319 0.0 0.0 0.00 0.00 0.00 86 1020.0
20260901172901 62 320 0.0 0.0 0.00 0.00 0.00 84 1020.0
20260901172401 63 319 0.0 0.0 0.00 0.00 0.00 82 1020.0
20260901171901 64 320 0.0 0.0 0.00 0.00 0.00 80 1020.0
20260901171401 65 319 0.0 0.0 0.00 0.00 0.00 77 1020.0
20260901170902 67 317 0.0 0.0 0.00 0.00 0.00 73 1020.0
20260901170401 68 319 0.0 1.0 0.00 0.00 0.00 69 1020.0
20260901165901 68 325 0.0 1.0 0.00 0.00 0.00 64 1020.0
20260901165401 68 323 0.0 1.0 0.00 0.00 0.00 64 1020.0
20260901164901 69 318 1.0 2.0 0.00 0.00 0.00 64 1020.0
20260901164402 69 297 5.0 6.0 0.00 0.00 0.00 62 1020.0
20260901163901 69 300 4.0 5.0 0.00 0.00 0.00 62 1020.0
20260901163401 69 280 5.0 5.0 0.00 0.00 0.00 62 1020.0
20260901162901 70 305 5.0 7.0 0.00 0.00 0.00 61 1020.0
20260901162401 71 312 7.0 7.0 0.00 0.00 0.00 60 1020.0
20260901161901 70 327 3.0 4.0 0.00 0.00 0.00 61 1020.0
20260901161401 70 335 4.0 10.0 0.00 0.00 0.00 61 1020.0
20260901160902 70 329 4.0 5.0 0.00 0.00 0.00 61 1020.0
20260901160401 70 307 5.0 6.0 0.00 0.00 0.00 61 1020.0
20260901155901 70 286 4.0 6.0 0.00 0.00 0.00 61 1020.0
20260901155401 70 341 7.0 10.0 0.00 0.00 0.00 60 1020.0
20260901154901 70 328 4.0 7.0 0.00 0.00 0.00 61 1020.0
20260901154401 70 322 2.0 4.0 0.00 0.00 0.00 62 1020.0
20260901153901 71 297 6.0 9.0 0.00 0.00 0.00 61 1020.0
20260901153401 70 320 6.0 6.0 0.00 0.00 0.00 59 1020.0
20260901152901 70 280 6.0 7.0 0.00 0.00 0.00 60 1020.0
20260901152401 70 308 1.0 6.0 0.00 0.00 0.00 61 1020.0
20260901151901 70 330 13.0 15.0 0.00 0.00 0.00 59 1020.0
20260901151401 69 301 11.0 14.0 0.00 0.00 0.00 59 1020.0
20260901150901 70 313 4.0 6.0 0.00 0.00 0.00 60 1020.0
20260901150401 70 285 6.0 8.0 0.00 0.00 0.00 60 1020.0
20260901145901 71 335 4.0 6.0 0.00 0.00 0.00 59 1020.0
20260901145401 71 336 4.0 6.0 0.00 0.00 0.00 58 1020.0
20260901144901 71 318 6.0 10.0 0.00 0.00 0.00 58 1020.0
20260901144401 73 312 6.0 6.0 0.00 0.00 0.00 55 1020.0
20260901143901 71 272 6.0 9.0 0.00 0.00 0.00 56 1020.0
20260901143401 73 285 6.0 15.0 0.00 0.00 0.00 55 1020.0
20260901142901 72 304 6.0 7.0 0.00 0.00 0.00 55 1020.0
20260901142401 73 290 6.0 6.0 0.00 0.00 0.00 55 1019.6
20260901141901 73 250 6.0 11.0 0.00 0.00 0.00 54 1019.6
20260901141401 74 282 9.0 10.0 0.00 0.00 0.00 52 1020.0
20260901140901 74 297 3.0 10.0 0.00 0.00 0.00 53 1020.0
20260901140401 74 304 10.0 13.0 0.00 0.00 0.00 55 1020.0
20260901135901 73 301 10.0 10.0 0.00 0.00 0.00 54 1020.0
20260901135401 72 297 4.0 5.0 0.00 0.00 0.00 54 1020.0
20260901134901 72 306 13.0 17.0 0.00 0.00 0.00 55 1020.0
20260901134401 73 341 5.0 7.0 0.00 0.00 0.00 54 1020.0
20260901133901 72 327 10.0 12.0 0.00 0.00 0.00 56 1020.0
20260901133401 72 265 3.0 5.0 0.00 0.00 0.00 56 1020.0
20260901132901 72 275 5.0 6.0 0.00 0.00 0.00 57 1020.0
20260901132401 71 328 5.0 7.0 0.00 0.00 0.00 57 1020.0
20260901131901 71 319 10.0 13.0 0.00 0.00 0.00 55 1020.0
20260901131401 71 317 12.0 22.0 0.00 0.00 0.00 56 1020.0
20260901130901 71 312 11.0 21.0 0.00 0.00 0.00 55 1020.0
20260901130401 71 329 12.0 16.0 0.00 0.00 0.00 55 1020.0
20260901125902 71 290 6.0 7.0 0.00 0.00 0.00 56 1020.0
20260901125401 72 319 0.0 1.0 0.00 0.00 0.00 57 1020.0
20260901124901 71 311 7.0 12.0 0.00 0.00 0.00 56 1020.0
20260901124401 71 304 3.0 3.0 0.00 0.00 0.00 56 1020.0
20260901123901 72 310 5.0 5.0 0.00 0.00 0.00 57 1020.0
20260901123401 71 331 3.0 4.0 0.00 0.00 0.00 56 1020.0
20260901122901 71 337 7.0 12.0 0.00 0.00 0.00 54 1020.0
20260901122401 71 298 9.0 16.0 0.00 0.00 0.00 55 1020.0
20260901121901 71 284 10.0 12.0 0.00 0.00 0.00 56 1020.0
20260901121401 72 300 6.0 9.0 0.00 0.00 0.00 56 1020.0
20260901120901 71 299 5.0 6.0 0.00 0.00 0.00 58 1020.0
20260901120401 71 283 3.0 6.0 0.00 0.00 0.00 57 1020.0
20260901115901 71 347 10.0 13.0 0.00 0.00 0.00 54 1020.0
20260901115401 73 338 6.0 6.0 0.00 0.00 0.00 53 1020.0
20260901114901 74 285 6.0 10.0 0.00 0.00 0.00 54 1020.0
20260901114401 74 181 4.0 10.0 0.00 0.00 0.00 53 1020.0
20260901113902 71 345 15.0 15.0 0.00 0.00 0.00 54 1020.0
20260901113401 71 318 9.0 13.0 0.00 0.00 0.00 58 1020.0
20260901112901 71 293 4.0 6.0 0.00 0.00 0.00 60 1020.0
20260901112401 71 299 4.0 5.0 0.00 0.00 0.00 58 1020.0
20260901111901 71 300 6.0 7.0 0.00 0.00 0.00 57 1020.0
20260901111401 71 304 3.0 3.0 0.00 0.00 0.00 57 1020.0
20260901110901 71 286 6.0 8.0 0.00 0.00 0.00 57 1020.0
20260901110401 70 301 8.0 11.0 0.00 0.00 0.00 58 1020.0
20260901105901 71 286 11.0 12.0 0.00 0.00 0.00 58 1020.0
20260901105401 71 301 7.0 9.0 0.00 0.00 0.00 56 1020.0
20260901104901 74 242 10.0 10.0 0.00 0.00 0.00 54 1020.0
20260901104401 72 315 4.0 9.0 0.00 0.00 0.00 56 1020.0
20260901103901 71 304 9.0 17.0 0.00 0.00 0.00 57 1020.0
20260901103401 71 336 3.0 8.0 0.00 0.00 0.00 59 1020.0
20260901102901 71 348 13.0 17.0 0.00 0.00 0.00 56 1020.0
20260901102401 71 317 8.0 12.0 0.00 0.00 0.00 56 1019.6
20260901101901 69 350 9.0 10.0 0.00 0.00 0.00 58 1019.6
20260901101401 70 298 8.0 9.0 0.00 0.00 0.00 58 1019.6
20260901100901 71 307 6.0 7.0 0.00 0.00 0.00 58 1019.6
20260901100401 72 315 11.0 21.0 0.00 0.00 0.00 55 1019.6
20260901095901 72 281 7.0 10.0 0.00 0.00 0.00 57 1019.6
20260901095401 71 337 8.0 10.0 0.00 0.00 0.00 59 1019.6
20260901094901 72 262 8.0 11.0 0.00 0.00 0.00 57 1019.6
20260901094401 72 270 10.0 12.0 0.00 0.00 0.00 56 1019.6
20260901093901 71 297 5.0 6.0 0.00 0.00 0.00 60 1019.3
20260901093401 73 328 7.0 12.0 0.00 0.00 0.00 55 1019.3
20260901092901 72 340 11.0 13.0 0.00 0.00 0.00 57 1019.3
20260901092401 71 310 11.0 15.0 0.00 0.00 0.00 58 1019.6
20260901091901 71 298 8.0 8.0 0.00 0.00 0.00 59 1019.6
20260901091401 68 311 13.0 13.0 0.00 0.00 0.00 62 1019.3
20260901090901 68 313 7.0 10.0 0.00 0.00 0.00 63 1019.3
20260901090401 69 287 2.0 3.0 0.00 0.00 0.00 64 1019.3
20260901085901 69 347 3.0 4.0 0.00 0.00 0.00 65 1019.3
20260901085401 69 348 4.0 8.0 0.00 0.00 0.00 62 1019.3
20260901084901 69 308 10.0 16.0 0.00 0.00 0.00 62 1019.3
20260901084401 69 328 4.0 6.0 0.00 0.00 0.00 62 1019.3
20260901083901 69 340 8.0 12.0 0.00 0.00 0.00 62 1019.3
20260901083401 71 314 9.0 10.0 0.00 0.00 0.00 58 1019.3
20260901082901 71 321 6.0 8.0 0.00 0.00 0.00 59 1019.3
20260901082401 72 299 11.0 11.0 0.00 0.00 0.00 57 1019.3
20260901081901 72 347 5.0 7.0 0.00 0.00 0.00 59 1019.3
20260901081401 71 344 3.0 6.0 0.00 0.00 0.00 61 1019.0
20260901080901 70 328 8.0 13.0 0.00 0.00 0.00 61 1019.0
20260901080401 71 316 8.0 12.0 0.00 0.00 0.00 60 1019.0
20260901075901 70 283 9.0 17.0 0.00 0.00 0.00 61 1019.0
20260901075401 70 341 9.0 12.0 0.00 0.00 0.00 64 1019.0
20260901074901 69 303 13.0 16.0 0.00 0.00 0.00 63 1019.0
20260901074401 69 301 5.0 14.0 0.00 0.00 0.00 65 1019.0
20260901073901 69 324 15.0 21.0 0.00 0.00 0.00 63 1018.3
20260901073401 69 326 12.0 19.0 0.00 0.00 0.00 64 1018.3
20260901072901 69 279 6.0 6.0 0.00 0.00 0.00 64 1018.3
20260901072401 69 346 6.0 11.0 0.00 0.00 0.00 66 1018.0
20260901071901 69 307 7.0 12.0 0.00 0.00 0.00 67 1018.0
20260901071401 69 318 7.0 9.0 0.00 0.00 0.00 67 1018.3
20260901070901 68 311 7.0 11.0 0.00 0.00 0.00 67 1018.3
20260901070401 68 312 6.0 13.0 0.00 0.00 0.00 68 1018.3
20260901065901 68 338 13.0 16.0 0.00 0.00 0.00 67 1018.3
20260901065401 68 292 12.0 16.0 0.00 0.00 0.00 68 1018.3
20260901064901 68 292 9.0 10.0 0.00 0.00 0.00 68 1018.0
20260901064401 68 333 7.0 7.0 0.00 0.00 0.00 70 1018.0
20260901063901 67 323 9.0 10.0 0.00 0.00 0.00 70 1018.0
20260901063401 67 324 4.0 6.0 0.00 0.00 0.00 73 1018.0
20260901062901 67 316 6.0 10.0 0.00 0.00 0.00 74 1018.0
20260901062401 67 312 6.0 6.0 0.00 0.00 0.00 74 1018.0
20260901061901 67 319 4.0 6.0 0.00 0.00 0.00 77 1018.0
20260901061401 66 332 10.0 11.0 0.00 0.00 0.00 75 1018.0
20260901060901 65 296 7.0 14.0 0.00 0.00 0.00 78 1018.0
20260901060401 65 340 6.0 8.0 0.00 0.00 0.00 79 1018.0
20260901055901 65 335 1.0 1.0 0.00 0.00 0.00 82 1017.6
20260901055401 63 309 2.0 2.0 0.00 0.00 0.00 88 1017.6
20260901054901 61 320 5.0 6.0 0.00 0.00 0.00 95 1017.6
20260901054401 61 311 3.0 4.0 0.00 0.00 0.00 99 1017.6
20260901053901 61 199 1.0 1.0 0.00 0.00 0.00 99 1017.3
20260901053401 61 323 0.0 0.0 0.00 0.00 0.00 99 1017.3
20260901052901 60 329 0.0 0.0 0.00 0.00 0.00 99 1017.3
20260901052401 59 328 1.0 1.0 0.00 0.00 0.00 99 1017.3
20260901051901 58 326 0.0 0.0 0.00 0.00 0.00 99 1017.3
20260901051401 58 325 0.0 0.0 0.00 0.00 0.00 99 1017.3
20260901050901 58 325 0.0 1.0 0.00 0.00 0.00 99 1017.3
20260901050401 57 325 0.0 0.0 0.00 0.00 0.00 99 1017.3
20260901045901 56 326 0.0 0.0 0.00 0.00 0.00 99 1017.3
20260901045401 56 326 0.0 0.0 0.00 0.00 0.00 99 1017.3
20260901044901 54 325 0.0 0.0 0.00 0.00 0.00 99 1017.3
20260901044401 53 332 0.0 0.0 0.00 0.00 0.00 99 1017.3
20260901043901 53 332 0.0 0.0 0.00 0.00 0.00 99 1017.3
20260901043401 53 332 0.0 0.0 0.00 0.00 0.00 99 1017.3
20260901042901 53 332 0.0 0.0 0.00 0.00 0.00 99 1017.3
20260901042401 53 332 0.0 0.0 0.00 0.00 0.00 99 1017.3
20260901041901 53 332 0.0 0.0 0.00 0.00 0.00 99 1017.3
20260901041401 52 332 0.0 0.0 0.00 0.00 0.00 99 1017.3
20260901040901 53 331 0.0 0.0 0.00 0.00 0.00 99 1017.3
20260901040401 53 331 0.0 0.0 0.00 0.00 0.00 99 1017.3
20260901035901 53 332 0.0 0.0 0.00 0.00 0.00 99 1017.3
20260901035401 53 332 1.0 1.0 0.00 0.00 0.00 99 1017.3
20260901034901 53 331 0.0 0.0 0.00 0.00 0.00 99 1017.3
20260901034401 53 337 0.0 0.0 0.00 0.00 0.00 99 1017.3
20260901033901 53 337 1.0 1.0 0.00 0.00 0.00 99 1017.3
20260901033401 53 334 0.0 0.0 0.00 0.00 0.00 99 1017.3
20260901032901 53 336 0.0 0.0 0.00 0.00 0.00 99 1017.3
20260901032401 53 340 0.0 1.0 0.00 0.00 0.00 99 1017.3
20260901031901 53 328 0.0 0.0 0.00 0.00 0.00 99 1017.3
20260901031401 53 328 0.0 0.0 0.00 0.00 0.00 99 1017.3
20260901030901 53 328 0.0 0.0 0.00 0.00 0.00 99 1017.3
20260901030401 54 334 0.0 0.0 0.00 0.00 0.00 99 1017.3
20260901025901 54 333 0.0 0.0 0.00 0.00 0.00 99 1017.3
20260901025401 54 329 0.0 0.0 0.00 0.00 0.00 99 1017.3
20260901024901 54 329 0.0 0.0 0.00 0.00 0.00 99 1017.3
20260901024401 55 329 0.0 0.0 0.00 0.00 0.00 99 1017.3
20260901023901 55 329 0.0 0.0 0.00 0.00 0.00 99 1016.9
20260901023401 55 329 0.0 0.0 0.00 0.00 0.00 99 1016.9
20260901022901 55 325 0.0 0.0 0.00 0.00 0.00 99 1016.9
20260901022401 56 325 0.0 0.0 0.00 0.00 0.00 99 1016.9
20260901021901 56 342 0.0 0.0 0.00 0.00 0.00 99 1016.9
20260901021401 56 340 0.0 0.0 0.00 0.00 0.00 99 1016.6
20260901020901 56 336 0.0 0.0 0.00 0.00 0.00 99 1016.6
20260901020401 57 336 0.0 0.0 0.00 0.00 0.00 99 1016.6
20260901015901 57 334 0.0 0.0 0.00 0.00 0.00 99 1016.9
20260901015401 57 333 0.0 0.0 0.00 0.00 0.00 99 1016.9
20260901014901 58 334 0.0 0.0 0.00 0.00 0.00 99 1016.9
20260901014401 58 334 1.0 1.0 0.00 0.00 0.00 99 1016.9
20260901013901 58 316 0.0 1.0 0.00 0.00 0.00 99 1016.9
20260901013401 58 329 0.0 0.0 0.00 0.00 0.00 99 1016.9
20260901012901 58 334 0.0 0.0 0.00 0.00 0.00 99 1016.9
20260901012401 58 330 0.0 0.0 0.00 0.00 0.00 99 1016.9
20260901011901 58 327 0.0 0.0 0.00 0.00 0.00 99 1016.9
20260901011401 58 329 1.0 1.0 0.00 0.00 0.00 99 1016.9
20260901010901 58 322 0.0 0.0 0.00 0.00 0.00 99 1016.9
20260901010401 58 322 0.0 0.0 0.00 0.00 0.00 99 1016.9
20260901005901 58 327 0.0 0.0 0.00 0.00 0.00 99 1016.9
20260901005401 58 325 0.0 0.0 0.00 0.00 0.00 99 1016.9
20260901004901 58 322 0.0 0.0 0.00 0.00 0.00 99 1016.9
20260901004401 57 330 0.0 0.0 0.00 0.00 0.00 99 1016.9
20260901003901 57 330 0.0 0.0 0.00 0.00 0.00 99 1016.9
20260901003401 57 333 0.0 0.0 0.00 0.00 0.00 99 1016.9
20260901002901 57 333 0.0 0.0 0.00 0.00 0.00 99 1016.9
20260901002401 57 333 0.0 0.0 0.00 0.00 0.00 99 1016.9
20260901001901 57 331 0.0 0.0 0.00 0.00 0.00 99 1016.9
20260901001401 57 330 0.0 0.0 0.00 0.00 0.00 99 1017.3
20260901000901 57 331 0.0 0.0 0.00 0.00 0.00 99 1017.3
20260901000401 57 330 0.0 0.0 0.00 0.00 0.00 99 1017.3
20260831235901 57 331 0.0 0.0 0.00 0.00 0.00 99 1016.9
20260831235401 57 330 0.0 0.0 0.00 0.00 0.00 99 1016.9
20260831234901 57 331 0.0 0.0 0.00 0.00 0.00 99 1017.3
20260831234401 57 330 0.0 0.0 0.00 0.00 0.00 99 1017.3
20260831233901 58 330 0.0 0.0 0.00 0.00 0.00 99 1017.3
20260831233401 57 330 0.0 0.0 0.00 0.00 0.00 99 1017.3
20260831232901 58 330 0.0 0.0 0.00 0.00 0.00 99 1017.3
20260831232401 57 330 0.0 0.0 0.00 0.00 0.00 99 1017.3
20260831231901 57 330 0.0 0.0 0.00 0.00 0.00 99 1017.3
20260831231401 58 330 0.0 0.0 0.00 0.00 0.00 99 1017.3
20260831230901 58 331 0.0 0.0 0.00 0.00 0.00 99 1017.3
20260831230401 58 327 0.0 0.0 0.00 0.00 0.00 99 1017.3
20260831225901 58 322 0.0 0.0 0.00 0.00 0.00 99 1017.3
20260831225401 57 332 0.0 0.0 0.00 0.00 0.00 99 1017.3
20260831224901 58 332 0.0 0.0 0.00 0.00 0.00 99 1017.3
20260831224401 58 332 0.0 0.0 0.00 0.00 0.00 99 1017.3
20260831223901 58 332 0.0 0.0 0.00 0.00 0.00 99 1017.3
20260831223401 58 332 0.0 0.0 0.00 0.00 0.00 99 1017.3
20260831222901 58 332 0.0 0.0 0.00 0.00 0.00 99 1017.3
20260831222401 58 333 0.0 0.0 0.00 0.00 0.00 99 1017.3
20260831221901 58 333 0.0 0.0 0.00 0.00 0.00 99 1017.3
20260831221401 58 330 0.0 0.0 0.00 0.00 0.00 99 1017.3
20260831220901 58 330 0.0 0.0 0.00 0.00 0.00 99 1017.3
20260831220401 58 330 0.0 0.0 0.00 0.00 0.00 99 1017.3
20260831215901 58 335 0.0 0.0 0.00 0.00 0.00 99 1017.3
20260831215401 58 336 0.0 0.0 0.00 0.00 0.00 99 1017.3
20260831214901 58 340 1.0 1.0 0.00 0.00 0.00 99 1016.9
20260831214401 58 315 2.0 2.0 0.00 0.00 0.00 99 1016.9
20260831213901 58 312 0.0 1.0 0.00 0.00 0.00 99 1016.9
20260831213401 58 341 0.0 0.0 0.00 0.00 0.00 99 1017.3
20260831212901 58 339 0.0 0.0 0.00 0.00 0.00 99 1017.3
20260831212401 58 329 0.0 0.0 0.00 0.00 0.00 99 1017.3
20260831211901 58 329 0.0 0.0 0.00 0.00 0.00 99 1017.3
20260831211401 59 329 0.0 0.0 0.00 0.00 0.00 99 1016.9
20260831210901 59 324 0.0 0.0 0.00 0.00 0.00 99 1016.9
20260831210401 59 323 0.0 0.0 0.00 0.00 0.00 99 1016.9
20260831205901 60 322 0.0 1.0 0.00 0.00 0.00 99 1016.9
20260831205401 60 325 0.0 0.0 0.00 0.00 0.00 99 1016.9
20260831204901 60 328 0.0 0.0 0.00 0.00 0.00 99 1016.9
20260831204401 60 334 0.0 0.0 0.00 0.00 0.00 99 1016.9
20260831203901 60 333 0.0 0.0 0.00 0.00 0.00 99 1016.9
20260831203401 60 333 0.0 0.0 0.00 0.00 0.00 99 1016.9
20260831202901 60 334 0.0 0.0 0.00 0.00 0.00 99 1016.9
20260831202401 60 325 0.0 0.0 0.00 0.00 0.00 99 1016.6